• MPC Preparation (Info)

  • MPEC 2022-U69 : 2022 UX1

    The following Minor Planet Electronic Circular may be linked-to from your own Web pages, but must not otherwise be redistributed electronically.

    A form allowing access to any MPEC is at the bottom of this page.


    Read MPEC 2022-U68 Read MPEC 2022-U70


    M.P.E.C. 2022-U69                              Issued 2022 October 19, 22:18 UT
    
         The Minor Planet Electronic Circulars contain information on unusual
             minor planets and routine data on comets.  They are published
        on behalf of Division F of the International Astronomical Union by the
              Minor Planet Center, Smithsonian Astrophysical Observatory,
                              Cambridge, MA 02138, U.S.A.
    
                 Prepared using the Tamkin Foundation Computer Network
    
                                  MPC@CFA.HARVARD.EDU
                URL https://www.minorplanetcenter.net/    ISSN 1523-6714
    
                                    2022 UX1                                 
    
    
    Observations:
         K22U01X  C2022 10 14.35844523 57 24.092-26 44 44.70         20.32GVEU069F52
         K22U01X  C2022 10 14.36979923 57 33.407-26 40 09.09         19.98GVEU069F52
         K22U01X* C2022 10 17.33497800 24 12.885-15 23 48.32         21.58wUEU069F52
         K22U01X  C2022 10 17.35524300 24 16.064-15 21 18.47         21.54wUEU069F52
         K22U01X  C2022 10 17.36543600 24 17.680-15 20 01.50         21.12wUEU069F52
         K22U01X  C2022 10 17.43283800 24 28.109-15 11 38.44         21.52GVEU069F52
         K22U01X  C2022 10 17.43346800 24 28.216-15 11 33.84         21.38GVEU069F52
         K22U01X  C2022 10 18.37183500 28 12.063-13 31 00.69         22.30GVEU069F52
         K22U01X  C2022 10 19.30955300 31 04.414-12 12 26.69         22.06GVEU069F51
         K22U01X  C2022 10 19.31391400 31 04.746-12 12 07.44         21.40GVEU069F51
         K22U01X  C2022 10 19.31832100 31 05.090-12 11 47.60         22.54GVEU069F51
         K22U01X  C2022 10 19.32662800 31 05.689-12 11 11.97         21.75GVEU069F51
         K22U01X  C2022 10 19.35467600 31 07.674-12 09 09.38         21.92GVEU069F51
         K22U01X  C2022 10 19.36572700 31 08.460-12 08 21.12         22.49GVEU069F51
         K22U01X  C2022 10 19.37675300 31 09.208-12 07 32.73         22.47GVEU069F51
    
    Observer details:
    F51 Pan-STARRS 1, Haleakala.  Observers J. Bulger, K. Chambers, T. Lowe, A.
        Schultz, I. Smith.  Measurers S. Chastel, J. Fairlamb, M. Huber, Y.
        Ramanjooloo, R. Wainscoat, R. Weryk.  1.8-m Ritchey-Chretien + CCD.
    F52 Pan-STARRS 2, Haleakala.  Observers J. Bulger, K. Chambers, T. Dukes, T.
        Lowe, A. Schultz, I. Smith.  Measurers S. Chastel, J. Fairlamb, M. Huber,
        Y. Ramanjooloo, R. Wainscoat, R. Weryk, K. Chambers, T. de Boer, H. Gao,
        C.-C. Lin, E. Magnier.  1.8-m Ritchey-Chretien + CCD.
    
    Orbital elements:
    2022 UX1                                                 Earth MOID = 0.0050 AU
    Epoch 2022 Aug. 9.0 TT = JDT 2459800.5                  Veres                   
    M  12.58979              (2000.0)            P               Q                  
    n   0.99234433     Peri.   81.90702     +0.03606739     +0.99932578             
    a   0.9954691      Node   190.16752     -0.93151918     +0.03113094             
    e   0.2590443      Incl.    2.22869     -0.36189937     +0.01946398             
    P   0.99           H   27.99          G   0.15           U   7                  
    Residuals in seconds of arc
    221014 F52  0.1+  0.0     221017 F52  0.1+  0.1+    221019 F51  0.3+  0.8+
    221014 F52 (0.8-  1.6-)   221017 F52  0.2+  0.0     221019 F51  0.0   0.1+
    221017 F52  0.0   0.5+    221018 F52  0.1-  0.3-    221019 F51  0.2-  0.1-
    221017 F52  0.5-  0.5-    221019 F51  0.2+  0.1-    221019 F51  0.2+  0.3-
    221017 F52  0.1-  0.5+    221019 F51  0.2+  0.2+    221019 F51  0.2+  0.4-
    
    Ephemeris:
    2022 UX1                 a,e,i = 1.00, 0.26, 2                   q = 0.7376
    Date    TT    R. A. (2000) Decl.     Delta      r    Elong.  Phase     V
    2022 09 19    12 53 51.2 -00 27 06   0.1164  0.8944    17.5   160.3    34.1
    ...
    2022 10 04    13 11 04.5 -07 27 22   0.03736 0.9636     8.8   170.9
    ...
    2022 10 12    21 27 05.3 -57 26 23   0.0082010.9998   101.5    78.0    20.3
    ...
    2022 10 18    00 26 52.2 -14 05 22   0.03362 1.0262   151.8    27.3    21.9
    2022 10 19    00 30 07.5 -12 34 27   0.03848 1.0306   152.6    26.4    22.2
    2022 10 20    00 32 39.3 -11 23 05   0.04339 1.0348   153.1    25.8    22.4
    ...
    2022 10 26    00 41 11.2 -07 24 53   0.07355 1.0599   152.2    25.9    23.6
    ...
    2022 11 03    00 47 32.8 -04 54 45   0.1157  1.0916   147.6    29.2    24.8
    ...
    2022 11 18    00 59 08.4 -01 51 49   0.2017  1.1446   137.0    36.1    26.3
    
    M. P. C. Staff               (C) Copyright 2022 MPC           M.P.E.C. 2022-U69
    


    Read MPEC 2022-U68 Read MPEC 2022-U70


    MPEC number:

    Enter an MPEC number in one of the following forms:

    • 1997-B01 (the full form)
    • J97B01 (the packed version of the full form)
    • B01 (the abbreviated form)